Howell, MI

8:14 AM EDT on June 28, 2017 (GMT -0400)
Livingston County

Weather History for KOZW - February, 2013

Change the Weather History Date:

Thursday, February 14, 2013

  Actual Average Record
Temperature  
Mean Temperature 34 °F -  
Max Temperature 40 °F 34 °F 48 °F (2005)
Min Temperature 29 °F 20 °F -6 °F (2016)
Degree Days  
Heating Degree Days 30    
Moisture  
Dew Point 29 °F    
Average Humidity 81    
Maximum Humidity 87    
Minimum Humidity 73    
Precipitation  
Precipitation 0.00 in - - ()
Sea Level Pressure  
Sea Level Pressure 29.71 in    
Wind  
Wind Speed 9 mph (SSW)    
Max Wind Speed 23 mph    
Max Gust Speed 34 mph    
Visibility 7 miles    
Events Rain , Snow    
Averages and records for this station are not official NWS values.
T = Trace of Precipitation, MM = Missing Value Source: NWS Daily Summary

Daily Weather History Graph

Daily Weather History Graph

Search for Another Location

Airport or City:

Trip Planner

Search our weather history database for the weather conditions in past years. The results will help you decide how hot, cold, wet, or windy it might be!

Date:

Astronomy

Feb. 14, 2013 Rise Set
Actual Time 7:33 AM EST 6:06 PM EST
Civil Twilight 7:04 AM EST 6:35 PM EST
Nautical Twilight 6:31 AM EST 7:08 PM EST
Astronomical Twilight 5:59 AM EST 7:41 PM EST
Moon 9:27 AM EST (2/14) 11:17 PM EST (2/14)
Length of Visible Light 11h 31m
Length of Day
10h 33m
Waxing Crescent, 21% of the Moon is Illuminated
Feb 14
Waxing Crescent
Feb 17
First Quarter
Feb 25
Full
Mar 4
Last Quarter
Mar 11
New

Hourly Weather History & Observations

Time (EST) Temp. Windchill Dew Point Humidity Pressure Visibility Wind Dir Wind Speed Gust Speed Precip Events Conditions
12:14 AM 30.4 °F 26.9 °F 24.1 °F 77% 29.73 in 7.0 mi South 3.5 mph - N/A   Clear
12:34 AM 29.8 °F 24.9 °F 24.4 °F 80% 29.73 in 7.0 mi South 4.6 mph - N/A   Clear
12:55 AM 30.0 °F 25.2 °F 24.8 °F 81% 29.73 in 7.0 mi South 4.6 mph - N/A   Clear
1:14 AM 30.2 °F 25.4 °F 25.3 °F 82% 29.73 in 5.0 mi South 4.6 mph - N/A   Haze
1:35 AM 30.6 °F 25.8 °F 25.5 °F 82% 29.73 in 5.0 mi South 4.6 mph - N/A   Haze
1:54 AM 30.6 °F 23.8 °F 25.5 °F 82% 29.73 in 5.0 mi SSW 6.9 mph - N/A   Haze
2:14 AM 30.6 °F 23.8 °F 25.7 °F 82% 29.73 in 5.0 mi SSW 6.9 mph - N/A   Scattered Clouds
2:35 AM 30.7 °F 24.9 °F 26.1 °F 83% 29.72 in 5.0 mi SSW 5.8 mph - N/A   Haze
2:54 AM 30.4 °F 24.5 °F 25.7 °F 83% 29.72 in 5.0 mi SSW 5.8 mph - N/A   Mostly Cloudy
3:14 AM 30.2 °F 23.4 °F 25.7 °F 83% 29.73 in 5.0 mi SSW 6.9 mph - N/A   Clear
3:35 AM 29.8 °F 23.9 °F 25.7 °F 85% 29.73 in 5.0 mi SSW 5.8 mph - N/A   Clear
3:54 AM 29.5 °F 24.5 °F 25.5 °F 85% 29.73 in 5.0 mi SSW 4.6 mph - N/A   Clear
4:14 AM 29.3 °F 24.3 °F 25.5 °F 86% 29.73 in 4.0 mi SSW 4.6 mph - N/A   Clear
4:35 AM 29.7 °F 24.7 °F 25.7 °F 85% 29.72 in 5.0 mi SSW 4.6 mph - N/A   Clear
4:54 AM 29.7 °F 24.7 °F 26.1 °F 86% 29.72 in 4.0 mi SSW 4.6 mph - N/A   Clear
5:14 AM 29.8 °F 24.9 °F 26.2 °F 86% 29.73 in 4.0 mi SW 4.6 mph - N/A   Scattered Clouds
5:35 AM 30.2 °F 25.4 °F 26.6 °F 86% 29.73 in 4.0 mi SSW 4.6 mph - N/A   Mostly Cloudy
5:54 AM 30.9 °F 25.2 °F 27.3 °F 86% 29.72 in 4.0 mi SSW 5.8 mph - N/A   Mostly Cloudy
6:14 AM 30.7 °F 26.0 °F 27.1 °F 86% 29.71 in 4.0 mi South 4.6 mph - N/A   Overcast
6:35 AM 31.1 °F 25.4 °F 27.5 °F 87% 29.71 in 4.0 mi South 5.8 mph - N/A   Scattered Clouds
6:54 AM 31.6 °F 26.0 °F 28.0 °F 87% 29.71 in 5.0 mi South 5.8 mph - N/A   Mostly Cloudy
7:14 AM 32.0 °F 25.6 °F 28.4 °F 87% 29.71 in 5.0 mi South 6.9 mph - N/A   Overcast
7:35 AM 32.0 °F 25.6 °F 28.4 °F 87% 29.72 in 5.0 mi South 6.9 mph - N/A   Overcast
7:54 AM 32.0 °F 26.4 °F 28.4 °F 87% 29.72 in 3.0 mi South 5.8 mph - N/A   Overcast
8:15 AM 32.5 °F 26.2 °F 28.9 °F 87% 29.72 in 4.0 mi South 6.9 mph - N/A   Overcast
8:34 AM 32.9 °F 26.7 °F 29.1 °F 86% 29.72 in 4.0 mi South 6.9 mph - N/A   Overcast
8:54 AM 32.9 °F 26.7 °F 29.3 °F 87% 29.72 in 4.0 mi South 6.9 mph - N/A   Overcast
9:14 AM 33.8 °F 27.0 °F 29.7 °F 85% 29.72 in 4.0 mi South 8.1 mph - N/A   Haze
9:34 AM 33.8 °F 27.0 °F 29.8 °F 85% 29.72 in 4.0 mi South 8.1 mph - N/A   Overcast
9:55 AM 34.3 °F 27.7 °F 30.0 °F 84% 29.71 in 4.0 mi South 8.1 mph - N/A Snow Light Snow
10:14 AM 34.2 °F 26.2 °F 30.4 °F 86% 29.70 in 2.0 mi SSE 10.4 mph - N/A Snow Light Snow
10:34 AM 34.7 °F 26.4 °F 31.1 °F 87% 29.68 in 3.0 mi SE 11.5 mph - N/A Snow Light Snow
10:55 AM 35.1 °F 26.4 °F 31.1 °F 85% 29.68 in 4.0 mi SSE 12.7 mph - N/A   Overcast
11:14 AM 36.1 °F 27.7 °F 31.6 °F 84% 29.67 in 5.0 mi South 12.7 mph 17.3 mph N/A   Haze
11:34 AM 37.4 °F 28.9 °F 31.8 °F 80% 29.66 in 5.0 mi SSE 13.8 mph - N/A   Haze
11:55 AM 39.6 °F 32.1 °F 32.2 °F 75% 29.65 in 7.0 mi South 12.7 mph - N/A   Mostly Cloudy
12:14 PM 40.1 °F 31.0 °F 32.0 °F 73% 29.65 in 7.0 mi South 18.4 mph 26.5 mph N/A   Mostly Cloudy
12:34 PM 39.2 °F 30.5 °F 31.6 °F 74% 29.66 in 7.0 mi South 16.1 mph 21.9 mph N/A   Mostly Cloudy
12:54 PM 39.2 °F 31.2 °F 31.8 °F 75% 29.65 in 7.0 mi South 13.8 mph 20.7 mph N/A   Overcast
1:14 PM 39.2 °F 31.6 °F 31.8 °F 75% 29.65 in 7.0 mi SSW 12.7 mph 17.3 mph N/A   Overcast
1:35 PM 38.8 °F 32.6 °F 31.8 °F 76% 29.65 in 7.0 mi SSW 9.2 mph 20.7 mph N/A   Overcast
1:54 PM 38.7 °F 30.5 °F 31.8 °F 76% 29.65 in 7.0 mi SSW 13.8 mph - N/A   Overcast
2:14 PM 38.7 °F 31.8 °F 32.0 °F 77% 29.64 in 7.0 mi SSW 10.4 mph - N/A   Overcast
2:35 PM 38.7 °F 31.8 °F 32.0 °F 77% 29.64 in 7.0 mi SSW 10.4 mph - N/A   Overcast
2:54 PM 38.8 °F 33.2 °F 32.0 °F 76% 29.64 in 7.0 mi SSW 8.1 mph - N/A   Light Drizzle
3:15 PM 39.2 °F 31.6 °F 32.0 °F 75% 29.64 in 7.0 mi SW 12.7 mph 16.1 mph N/A   Overcast
3:34 PM 39.2 °F 31.6 °F 31.8 °F 75% 29.64 in 7.0 mi SW 12.7 mph 16.1 mph N/A   Overcast
3:54 PM 39.2 °F 32.5 °F 31.1 °F 73% 29.64 in 10.0 mi SW 10.4 mph 18.4 mph N/A Rain Light Rain
4:14 PM 38.3 °F 31.9 °F 31.5 °F 76% 29.65 in 7.0 mi SW 9.2 mph - N/A   Drizzle
4:34 PM 37.6 °F 28.4 °F 31.1 °F 77% 29.65 in 5.0 mi WSW 16.1 mph 21.9 mph N/A Rain Light Rain
4:55 PM 36.9 °F 29.1 °F 31.1 °F 80% 29.66 in 5.0 mi WSW 11.5 mph 18.4 mph N/A Rain Light Rain
5:14 PM 37.4 °F 28.5 °F 31.3 °F 79% 29.67 in 10.0 mi WSW 15.0 mph 19.6 mph N/A   Overcast
5:34 PM 37.4 °F 28.9 °F 30.2 °F 75% 29.67 in 10.0 mi WSW 13.8 mph 19.6 mph N/A   Overcast
5:55 PM 36.9 °F 26.5 °F 29.8 °F 76% 29.68 in 10.0 mi WSW 19.6 mph 27.6 mph N/A   Overcast
6:14 PM 36.5 °F 26.3 °F 30.2 °F 78% 29.69 in 10.0 mi WSW 18.4 mph 21.9 mph N/A   Overcast
6:35 PM 36.7 °F 27.6 °F 30.0 °F 77% 29.70 in 10.0 mi WSW 15.0 mph 23.0 mph N/A   Overcast
6:54 PM 36.7 °F 26.9 °F 29.7 °F 76% 29.70 in 10.0 mi WSW 17.3 mph 23.0 mph N/A   Overcast
7:14 PM 36.7 °F 27.6 °F 29.8 °F 76% 29.71 in 10.0 mi WSW 15.0 mph 23.0 mph N/A   Overcast
7:35 PM 36.1 °F 25.0 °F 29.8 °F 78% 29.72 in 7.0 mi West 21.9 mph 29.9 mph N/A   Overcast
7:54 PM 35.6 °F 24.2 °F 29.8 °F 80% 29.73 in 10.0 mi WSW 21.9 mph 34.5 mph N/A   Overcast
8:15 PM 35.1 °F 24.8 °F 29.3 °F 80% 29.73 in 10.0 mi WSW 17.3 mph 25.3 mph N/A   Overcast
8:34 PM 34.9 °F 24.6 °F 28.8 °F 78% 29.74 in 10.0 mi WSW 17.3 mph 26.5 mph N/A   Overcast
8:54 PM 34.2 °F 22.3 °F 28.8 °F 81% 29.75 in 10.0 mi WSW 21.9 mph 32.2 mph N/A   Overcast
9:15 PM 34.2 °F 23.3 °F 28.8 °F 81% 29.76 in 10.0 mi WSW 18.4 mph 29.9 mph N/A   Overcast
9:34 PM 34.3 °F 23.5 °F 28.4 °F 79% 29.77 in 10.0 mi West 18.4 mph 28.8 mph N/A   Overcast
9:55 PM 34.2 °F 22.3 °F 28.4 °F 79% 29.77 in 10.0 mi WSW 21.9 mph 26.5 mph N/A   Overcast
10:15 PM 34.0 °F 22.7 °F 28.2 °F 79% 29.78 in 10.0 mi West 19.6 mph 28.8 mph N/A   Overcast
10:34 PM 33.8 °F 22.8 °F 28.0 °F 79% 29.79 in 10.0 mi West 18.4 mph 28.8 mph N/A   Overcast
10:55 PM 33.8 °F 22.8 °F 27.1 °F 77% 29.80 in 10.0 mi West 18.4 mph 25.3 mph N/A   Overcast
11:14 PM 33.4 °F 23.9 °F 27.0 °F 77% 29.81 in 10.0 mi West 13.8 mph - N/A   Overcast
11:34 PM 33.3 °F 24.6 °F 26.6 °F 77% 29.82 in 10.0 mi West 11.5 mph - N/A   Overcast
11:55 PM 32.9 °F 20.4 °F 25.9 °F 75% 29.83 in 10.0 mi West 23.0 mph 31.1 mph N/A   Overcast